This is the latest recevied weather packets stored in our database for station/object DL9RAN-11. If no packets are shown the sender has not sent any weather packets the latest 10 day(s).
| Time | Temp. | Humidity | Pressure | Rain* | Wind** | Luminosity | Snow |
|---|---|---|---|---|---|---|---|
| 1787397498 | 21.11° C | 63% | 1020.9 hPa | - | - | - | - |
| 1787397198 | 21.67° C | 63% | 1020.9 hPa | - | - | - | - |
| 1787396897 | 21.67° C | 63% | 1020.7 hPa | - | - | - | - |
| 1787396597 | 21.67° C | 64% | 1020.7 hPa | - | - | - | - |
| 1787396158 | 21.67° C | 64% | 1020.7 hPa | - | - | - | - |
| 1787395858 | 21.67° C | 64% | 1020.6 hPa | - | - | - | - |
| 1787395557 | 21.67° C | 64% | 1020.6 hPa | - | - | - | - |
| 1787395256 | 21.67° C | 65% | 1020.6 hPa | - | - | - | - |
| 1787394885 | 21.67° C | 66% | 1020.6 hPa | - | - | - | - |
| 1787394514 | 20.56° C | 67% | 1020.5 hPa | - | - | - | - |
| 1787393206 | 20° C | 69% | 1020.3 hPa | - | - | - | - |
| 1787392905 | 20° C | 69% | 1020.3 hPa | - | - | - | - |
| 1787392534 | 20° C | 71% | 1020.5 hPa | - | - | - | - |
| 1787390964 | 20° C | 73% | 1020.5 hPa | - | - | - | - |
| 1787390664 | 19.44° C | 73% | 1020.4 hPa | - | - | - | - |
| 1787390363 | 18.89° C | 74% | 1020.4 hPa | - | - | - | - |
| 1787390063 | 18.89° C | 75% | 1020.2 hPa | - | - | - | - |
| 1787389221 | 18.33° C | 75% | 1020.3 hPa | - | - | - | - |
| 1787388519 | 18.33° C | 75% | 1020.2 hPa | - | - | - | - |
| 1787387874 | 18.33° C | 75% | 1020.2 hPa | - | - | - | - |
| 1787387503 | 18.33° C | 76% | 1020.2 hPa | - | - | - | - |
| 1787387132 | 18.33° C | 77% | 1020.1 hPa | - | - | - | - |
| 1787386831 | 18.33° C | 77% | 1020 hPa | - | - | - | - |
| 1787386461 | 18.33° C | 77% | 1019.9 hPa | - | - | - | - |
| 1787385693 | 18.33° C | 78% | 1019.9 hPa | - | - | - | - |
* Rain since midnight (hover to see other rain measurements)
** Current wind speed in m/s (hover to see current wind gust speed)